Location: Brahman Valley
(40.6513°N, 111.8855°W)
Time: 12:41:31
(UTC+00:00)

Vanguard 2 - Visible Passes

Search period start: 13 May 2021 00:00
Search period end: 23 May 2021 00:00
Orbit: 552 x 2938 km, 32.9° (Epoch: 12 May)

Date Brightness Start Highest point End Pass type
(mag) Time Alt. Az. Time Alt. Az. Time Alt. Az.
14 May 10.4 10:14:20 10° SSE 10:18:35 15° SE 10:23:51 10° ESE visible
15 May 10.1 10:30:20 11° S 10:35:34 21° SE 10:43:04 10° E visible
16 May 9.9 10:47:03 12° SSW 10:52:40 27° SE 11:01:39 10° E visible
17 May 9.8 11:03:45 11° SSW 11:09:54 34° SSE 11:19:55 10° E visible
18 May 10.1 09:19:02 12° SE 09:20:04 12° SE 09:22:47 10° ESE visible
18 May 9.6 11:20:32 10° SW 11:27:16 41° SSE 11:38:02 10° E visible
19 May 9.7 09:35:42 17° SSE 09:37:07 18° SE 09:42:18 10° ESE visible
20 May 9.3 09:52:22 21° S 09:54:17 24° SE 10:00:53 10° E visible
21 May 9.1 10:09:01 23° S 10:11:33 30° SSE 10:19:07 10° E visible
22 May 9.0 10:25:40 22° SSW 10:28:55 37° SSE 10:37:10 10° E visible
